Location: *
(44.1392°N, 4.8079°E)
Time: 07:29:25
(UTC+00:00)

Cosmos 1862 - Pass Details

Date: 21 June 2021
Orbit: 536 x 556 km, 82.5° (Epoch: 01 August)

Event Time Altitude Azimuth Distance (km) Brightness Sun altitude
Exits shadow 03:01:57 - 203° (SSW) 1,891 5.5 -8.5°
Reaches altitude 10° 03:02:06 10° 204° (SSW) 1,831 5.4 -8.5°
Maximum altitude 03:06:03 52° 281° (WNW) 695 3.6 -8.0°
Drops below altitude 10° 03:10:02 10° 359° (N) 1,851 6.7 -7.4°
Sets 03:12:16 0° 4° (N) 2,751 7.7 -7.2°
